CZ-12 R/B, 66421

Orbit data source: Space-Track

CZ-12 R/B, 66421 is space debris in LEO originally from a launch on Mon, 10 Nov 2025 UTC launched from the Wenchang Satellite Launch Center (WSC). Debris objects in space refer to the collection of defunct objects orbiting the Earth. Examples of debris include non-operational satellites, rocket bodies, and fragments generated from explosions, collisions, or faulty payload assembly.

Loading next visibility...
Identifier
66421, 2025-258K
Orbit
LEO
Country
Flag of CNCN / PRC
Related business
Manufacturer
SAST
Mission
Spacecraft
Bus & Motor
CZ-12 STAGE 2, YF-115
Mass
~6,000 kg wet, ~6,000 kg dry
Launch date (UTC)
2025-11-10 (7 months ago)
Launch vehicle
Unknown
Launch site
Wenchang Satellite Launch Center (WSC)
Object type
Payload
Rocket body
Debris
Shape & HBR
Cyl, 1.1 m
Radar Cross Section
35.516 m², Large (>1 m²)

Expand to show TLE details & history
Last TLE update: 15 hours ago

TLE from 15 hours ago
0 CZ-12 R/B
1 66421U 25258K   26171.20682969 -.00000062  00000-0  31802-4 0  9997
2 66421  49.9937 155.7056 0064488 210.7478 148.9658 14.42416104 32069
Epoch: 2026-06-20T04:57Z
TLE epoch observation values (Epoch: 2026-06-20T04:57:50.085Z)
Latitude
0.00002°
Longitude
172.82216°
Altitude
790.527 km
Speed
7.439 km/s
True Right ascension
10h 22m 49s
True Declination
0° 00' 00"
Sunlit
Object was in daylight at epoch
Visualization orbit readout
Latitude
Unknown
Longitude
Unknown
Altitude
Unknown
Speed
Unknown
Apparent Right ascension
Unknown
Apparent Declination
Unknown
Sunlit
N/A
Visualization observer readout
Local Sidereal Time
07:18:10
Azimuth
Unknown
Elevation
Unknown
Doppler factor
Unknown
Orbital elements
Apogee altitude
797.248 km
Perigee altitude
705.296 km
Semi-major axis
7,129.409 km
Eccentricity
0.00645
Inclination
49.9937°
RAAN
155.7056°
Arg. of periapsis
210.7478°
True anomaly
149.34416°
Mean anomaly
148.9658°
Eccentric anomaly
149.15524°
Mean motion
3.60548 °/min
Orbital period
99.85 mins
BSTAR
0.000031802
Loading maneuver chart data...
Computing Atmospheric mass density...
Loading historical data...
Loading historical data...
Loading historical data...
Loading historical data...
Loading historical data...
Loading historical data...
Loading historical data...

Documentation

Showing up to 5 results
|